{"data":{"norad_id":36402,"intl_designator":"2010-007C","name":"COSMOS 2460 (732)","alt_names":[],"object_type":"PAYLOAD","status":"ACTIVE","operator":null,"country":"CIS","launch_date":"2010-03-01","launch_site_code":"TYMSC","launch_vehicle":null,"mission":null,"orbit_class":"UNKNOWN","rcs_meters":4.7754,"size_class":null,"mass_kg":null,"dimensions":null,"purposes":["nav"],"wikipedia_slug":null,"has_3d_model":false,"image_url":null,"decayed_at":null,"tle_current":{"epoch":"2026-05-21T09:27:21.573216Z","epoch_age_seconds":380458,"freshness":"STALE","line1":"1 36402U 10007C   26141.39399969 -.00000036  00000+0  00000+0 0  9992","line2":"2 36402  65.4368 315.3728 0002175  89.3837 261.6495  2.13106126126151","mean_motion":2.13106126,"eccentricity":0.0002175,"inclination_deg":65.4368,"raan_deg":315.3728,"arg_perigee_deg":89.3837,"mean_anomaly_deg":261.6495,"bstar":0,"rev_number":12615,"period_min":675.71966467074,"perigee_km":19124.01025802,"apogee_km":19135.106105424,"semimajor_km":25507.695181722,"source":"CELESTRAK","updated_at":"2026-05-25T13:38:23.891147Z"}}}